Content
SEND FEEDBACK

Daily
Averages
Monthly
Summary
United States of America

ROCK HILL, NEW YORK


Home > North America > United States > New York
Elevation: 1260 feet     Latitude: 41 35N     Longitude: 074 37W

WEATHER
 
SELECT A DAY
Number of Records: 452,646;   Date Range: 1/1/95 - 11/20/14
 
SHARE

PRINT THIS DATA

[ ← Previous Day ]
WEATHER ALMANAC - DECEMBER 16, 2013
[ Next Day → ]
[ °C ]   °F
Weather ElementAverageHighLow
Temperature16.4 °F24.8 °F (12:35 am)3.2 °F (11:35 pm)
Dewpoint4.5 °F15.8 °F (12:55 am)-2.2 °F (9:55 pm)
Humidity60.2 %79 % (4:35 am)49 % (2:35 pm)
Barometer29.97 in30.12 in (8:15 pm)29.73 in (12:35 am)
Wind Speed9.1 mph20.7 mph (12:55 am)
Wind Gust31.1 mph (12:55 am)
Weather ElementAverage
Visibility9.3 mi
Wind DirectionWSW (238.2 °)

Weather ElementTotal
Precipitation---
Heating Degree Days51 (Base 65)
Averaged from 71 records on December 16, 2013
WEATHER CONDITIONS BREAKOUT
WIND DIRECTION BREAKOUT
WEATHER BY HOUR - DECEMBER 16, 2013
[ °C ]   °F
Local TimeTemperatureDewpointHumidityBarometerVisibilityWind DirectionWind SpeedGust SpeedPrecipitationEventsConditions
12:35 AM24.8 °F14.0 °F64 %29.73 in10.0 miWest (270°)13.8 mphOvercast
12:55 AM23.0 °F15.8 °F74 %29.75 in1.5 miWNW (290°)20.7 mph31.1 mphOvercast
1:15 AM23.0 °F12.2 °F63 %29.75 in10.0 miWNW (290°)18.4 mph28.8 mphScattered Clouds
1:35 AM21.2 °F8.6 °F58 %29.76 in10.0 miWest (280°)19.6 mph28.8 mphClear
1:55 AM21.2 °F6.8 °F54 %29.77 in10.0 miWNW (290°)16.1 mph25.3 mphClear
2:15 AM21.2 °F6.8 °F54 %29.78 in10.0 miWest (270°)15.0 mph23.0 mphClear
2:35 AM21.2 °F6.8 °F54 %29.79 in10.0 miWest (280°)12.7 mph25.3 mphScattered Clouds
2:55 AM21.2 °F6.8 °F54 %29.80 in10.0 miWest (280°)11.5 mph20.7 mphPartly Cloudy
3:15 AM19.4 °F8.6 °F63 %29.81 in10.0 miWNW (290°)16.1 mphMostly Cloudy
3:35 AM19.4 °F10.4 °F68 %29.81 in5.0 miWest (270°)13.8 mph19.6 mphMostly Cloudy
3:55 AM19.4 °F12.2 °F74 %29.82 in4.0 miWest (270°)12.7 mph17.3 mphMostly Cloudy
4:15 AM19.4 °F12.2 °F74 %29.83 in3.0 miWest (280°)12.7 mph18.4 mphOvercast
4:35 AM17.6 °F12.2 °F79 %29.84 in5.0 miWNW (300°)10.4 mph18.4 mphMostly Cloudy
4:55 AM17.6 °F8.6 °F68 %29.85 in8.0 miWNW (300°)15.0 mph23.0 mphMostly Cloudy
5:15 AM17.6 °F8.6 °F68 %29.86 in10.0 miWest (280°)11.5 mph19.6 mphMostly Cloudy
5:35 AM17.6 °F5.0 °F58 %29.87 in10.0 miWNW (290°)12.7 mph24.2 mphPartly Cloudy
5:55 AM17.6 °F5.0 °F58 %29.88 in10.0 miWest (280°)16.1 mph21.9 mphClear
6:15 AM15.8 °F3.2 °F58 %29.89 in10.0 miWNW (290°)10.4 mph17.3 mphClear
6:35 AM15.8 °F3.2 °F58 %29.90 in10.0 miWest (280°)11.5 mph18.4 mphClear
6:55 AM15.8 °F3.2 °F58 %29.90 in10.0 miWNW (290°)8.1 mphClear
7:15 AM15.8 °F3.2 °F58 %29.92 in10.0 miWest (280°)8.1 mphClear
7:35 AM14.0 °F1.4 °F57 %29.93 in10.0 miWest (280°)8.1 mphClear
7:55 AM15.8 °F3.2 °F58 %29.94 in10.0 miWest (270°)6.9 mphClear
8:15 AM15.8 °F3.2 °F58 %29.95 in10.0 miWest (270°)10.4 mphClear
8:35 AM15.8 °F3.2 °F58 %29.96 in10.0 miWest (270°)9.2 mphClear
8:55 AM15.8 °F5.0 °F62 %29.96 in10.0 miWest (270°)12.7 mph17.3 mphClear
9:15 AM17.6 °F6.8 °F63 %29.97 in10.0 miWNW (290°)9.2 mphClear
9:35 AM17.6 °F6.8 °F63 %29.98 in10.0 miWNW (290°)9.2 mphClear
9:55 AM17.6 °F6.8 °F63 %29.99 in10.0 miWest (270°)6.9 mphScattered Clouds
10:15 AM17.6 °F6.8 °F63 %29.99 in10.0 miWNW (290°)10.4 mph16.1 mphMostly Cloudy
10:35 AM19.4 °F6.8 °F58 %29.99 in10.0 miWNW (290°)9.2 mph16.1 mphOvercast
10:55 AM19.4 °F5.0 °F54 %29.98 in10.0 miWNW (290°)10.4 mph18.4 mphOvercast
11:15 AM19.4 °F5.0 °F54 %29.98 in10.0 miWest (280°)13.8 mph21.9 mphOvercast
11:35 AM19.4 °F5.0 °F54 %29.98 in10.0 miWest (280°)12.7 mph18.4 mphOvercast
11:55 AM19.4 °F5.0 °F54 %29.98 in1.8 miWNW (290°)9.2 mph19.6 mphOvercast
12:15 PM19.4 °F5.0 °F54 %29.98 in10.0 miWNW (290°)12.7 mph20.7 mphMostly Cloudy
12:35 PM19.4 °F5.0 °F54 %29.98 in10.0 miWNW (290°)8.1 mphOvercast
12:55 PM19.4 °F6.8 °F58 %29.98 in10.0 miWNW (300°)17.3 mph20.7 mphOvercast
1:15 PM19.4 °F6.8 °F58 %29.98 in10.0 miWNW (290°)13.8 mph19.6 mphOvercast
1:35 PM19.4 °F5.0 °F54 %29.98 in3.0 miWNW (290°)15.0 mph23.0 mphOvercast
1:55 PM19.4 °F6.8 °F58 %29.99 in10.0 miWest (280°)10.4 mph18.4 mphOvercast
2:15 PM19.4 °F6.8 °F58 %29.99 in10.0 miNW (310°)11.5 mphMostly Cloudy
2:35 PM19.4 °F3.2 °F49 %29.99 in10.0 miNW (310°)12.7 mph18.4 mphMostly Cloudy
2:55 PM19.4 °F5.0 °F54 %30.00 in10.0 miWNW (290°)13.8 mph17.3 mphScattered Clouds
3:15 PM19.4 °F5.0 °F54 %30.01 in10.0 miNW (310°)15.0 mph21.9 mphPartly Cloudy
3:35 PM19.4 °F3.2 °F49 %30.02 in10.0 miNW (310°)12.7 mph19.6 mphPartly Cloudy
3:55 PM19.4 °F3.2 °F49 %30.02 in10.0 miWNW (290°)8.1 mphClear
4:15 PM19.4 °F3.2 °F49 %30.03 in10.0 miWest (280°)5.8 mphPartly Cloudy
4:35 PM19.4 °F3.2 °F49 %30.03 in10.0 miWest (280°)8.1 mphClear
4:55 PM17.6 °F1.4 °F49 %30.03 in10.0 miWNW (290°)5.8 mphClear
5:15 PM17.6 °F1.4 °F49 %30.05 in10.0 miWest (260°)3.5 mphPartly Cloudy
5:35 PM15.8 °F3.2 °F58 %30.05 in10.0 miWest (270°)5.8 mphPartly Cloudy
5:55 PM15.8 °F1.4 °F53 %30.06 in10.0 miWest (270°)4.6 mphClear
6:15 PM15.8 °F1.4 °F53 %30.08 in10.0 miWSW (250°)5.8 mphPartly Cloudy
6:35 PM15.8 °F1.4 °F53 %30.09 in10.0 miWSW (250°)4.6 mphPartly Cloudy
6:55 PM15.8 °F1.4 °F53 %30.09 in10.0 miWest (260°)4.6 mphScattered Clouds
7:15 PM14.0 °F1.4 °F57 %30.09 in10.0 miWest (260°)3.5 mphPartly Cloudy
7:35 PM12.2 °F-0.4 °F57 %30.10 in10.0 miWest (260°)5.8 mphClear
7:55 PM12.2 °F1.4 °F62 %30.11 in10.0 miWest (270°)5.8 mphClear
8:15 PM12.2 °F-0.4 °F57 %30.12 in10.0 miCalmClear
8:35 PM10.4 °F1.4 °F67 %30.12 in10.0 miWest (270°)3.5 mphClear
8:55 PM8.6 °F-0.4 °F67 %30.12 in10.0 miCalmClear
9:15 PM8.6 °F1.4 °F73 %30.12 in10.0 miCalmClear
9:35 PM8.6 °F1.4 °F73 %30.12 in10.0 miCalmClear
9:55 PM6.8 °F-2.2 °F67 %30.12 in10.0 miCalmClear
10:15 PM6.8 °F-0.4 °F72 %30.11 in10.0 miCalmClear
10:35 PM6.8 °F-0.4 °F72 %30.11 in10.0 miCalmClear
10:55 PM6.8 °F-0.4 °F72 %30.12 in10.0 miCalmClear
11:15 PM6.8 °F-0.4 °F72 %30.12 in10.0 miCalmClear
11:35 PM3.2 °F-2.2 °F78 %30.12 in10.0 miCalmClear
11:55 PM5.0 °F-0.4 °F78 %30.12 in10.0 miCalmClear
Hourly data recorded from KMSV, located miles away from Rock Hill, New York







STORIES FROM OUR PARTNERS